09-10-2023, 00:00:01,    236,    0.0,   13.1,   0.00,   0.00, 1018.8,    0.4, -999.0
09-10-2023, 00:00:11,    236,    0.0,   13.0,   0.00,   0.00, 1018.8,    0.4, -999.0
09-10-2023, 00:00:21,    236,    0.0,   13.0,   0.00,   0.00, 1018.8,    0.7, -999.0
09-10-2023, 00:00:31,    236,    0.0,   13.0,   0.00,   0.00, 1018.8,    0.3, -999.0
09-10-2023, 00:00:41,    236,    0.0,   13.0,   0.00,   0.00, 1018.8,    0.4, -999.0
09-10-2023, 00:00:51,    236,    0.0,   13.0,   0.00,   0.00, 1018.8,    0.5, -999.0
09-10-2023, 00:01:00,    236,    0.0,   13.0,   0.00,   0.00, 1018.8,    0.5, -999.0
09-10-2023, 00:01:11,    236,    0.0,   13.1,   0.00,   0.00, 1018.8,    0.5, -999.0
09-10-2023, 00:01:21,    236,    0.0,   13.0,   0.00,   0.00, 1018.8,    0.6, -999.0
09-10-2023, 00:01:30,    237,    0.0,   13.0,   0.00,   0.00, 1018.8,    0.4, -999.0
09-10-2023, 00:01:40,    239,    0.0,   13.0,   0.00,   0.00, 1018.8,    0.5, -999.0
09-10-2023, 00:01:51,    237,    0.0,   13.0,   0.00,   0.00, 1018.8,    0.5, -999.0
09-10-2023, 00:02:01,    236,    0.0,   13.0,   0.00,   0.00, 1018.8,    0.6, -999.0
09-10-2023, 00:02:10,    236,    0.0,   13.1,   0.00,   0.00, 1018.8,    0.0, -999.0
09-10-2023, 00:02:20,    236,    0.0,   13.1,   0.00,   0.00, 1018.8,    0.0, -999.0
09-10-2023, 00:02:31,    236,    0.0,   13.0,   0.00,   0.00, 1018.8,    0.7, -999.0
09-10-2023, 00:02:40,    236,    0.0,   13.0,   0.00,   0.00, 1018.8,    0.6, -999.0
09-10-2023, 00:02:50,    236,    0.0,   13.0,   0.00,   0.00, 1018.7,    0.0, -999.0
09-10-2023, 00:03:00,    236,    0.0,   13.0,   0.00,   0.00, 1018.8,    0.0, -999.0
09-10-2023, 00:03:10,    236,    0.0,   13.0,   0.00,   0.00, 1018.8,    0.1, -999.0
09-10-2023, 00:03:20,    236,    0.0,   13.0,   0.00,   0.00, 1018.8,    0.8, -999.0
09-10-2023, 00:03:30,    236,    0.0,   13.0,   0.00,   0.00, 1018.8,    1.0, -999.0
09-10-2023, 00:03:40,    236,    0.0,   13.0,   0.00,   0.00, 1018.8,    0.7, -999.0
09-10-2023, 00:03:50,    236,    0.0,   12.9,   0.00,   0.00, 1018.8,    1.0, -999.0
09-10-2023, 00:04:00,    237,    0.0,   12.9,   0.00,   0.00, 1018.8,    0.1, -999.0
09-10-2023, 00:04:10,    236,    0.0,   12.9,   0.00,   0.00, 1018.8,    0.8, -999.0
09-10-2023, 00:04:20,    236,    0.0,   12.8,   0.00,   0.00, 1018.8,    0.3, -999.0
09-10-2023, 00:04:30,    236,    0.0,   12.9,   0.00,   0.00, 1018.8,    0.5, -999.0
09-10-2023, 00:04:40,    236,    0.0,   12.9,   0.00,   0.00, 1018.8,    0.8, -999.0
09-10-2023, 00:04:50,    236,    0.0,   12.9,   0.00,   0.00, 1018.8,    0.6, -999.0
09-10-2023, 00:05:00,    236,    0.0,   12.9,   0.00,   0.00, 1018.8,    0.3, -999.0
09-10-2023, 00:05:10,    236,    0.0,   12.9,   0.00,   0.00, 1018.8,    0.5, -999.0
09-10-2023, 00:05:20,    236,    0.0,   12.9,   0.00,   0.00, 1018.8,    0.5, -999.0
09-10-2023, 00:05:30,    236,    0.0,   12.9,   0.00,   0.00, 1018.8,    0.6, -999.0
09-10-2023, 00:05:40,    236,    0.0,   12.9,   0.00,   0.00, 1018.8,    0.4, -999.0
09-10-2023, 00:05:50,    236,    0.0,   12.9,   0.00,   0.00, 1018.8,    0.3, -999.0
09-10-2023, 00:06:00,    236,    0.0,   12.9,   0.00,   0.00, 1018.8,    0.6, -999.0
09-10-2023, 00:06:10,    236,    0.0,   12.8,   0.00,   0.00, 1018.8,    0.4, -999.0
09-10-2023, 00:06:20,    236,    0.0,   12.8,   0.00,   0.00, 1018.8,    0.7, -999.0
09-10-2023, 00:06:30,    236,    0.0,   12.9,   0.00,   0.00, 1018.8,    0.5, -999.0
09-10-2023, 00:06:40,    236,    0.0,   12.9,   0.00,   0.00, 1018.8,    0.4, -999.0
09-10-2023, 00:06:50,    236,    0.0,   12.9,   0.00,   0.00, 1018.8,    0.5, -999.0
09-10-2023, 00:06:59,    236,    0.0,   12.8,   0.00,   0.00, 1018.8,    0.5, -999.0
09-10-2023, 00:07:10,    236,    0.0,   12.9,   0.00,   0.00, 1018.8,    0.5, -999.0
09-10-2023, 00:07:20,    236,    0.0,   12.9,   0.00,   0.00, 1018.8,    0.6, -999.0
09-10-2023, 00:07:29,    236,    0.0,   12.9,   0.00,   0.00, 1018.8,    0.5, -999.0
09-10-2023, 00:07:39,    236,    0.0,   12.9,   0.00,   0.00, 1018.8,    0.4, -999.0
09-10-2023, 00:07:50,    237,    0.0,   12.8,   0.00,   0.00, 1018.8,    0.5, -999.0
09-10-2023, 00:07:59,    236,    0.0,   12.9,   0.00,   0.00, 1018.8,    0.5, -999.0
09-10-2023, 00:08:09,    236,    0.0,   12.9,   0.00,   0.00, 1018.8,    0.7, -999.0
09-10-2023, 00:08:19,    237,    0.0,   12.9,   0.00,   0.00, 1018.8,    0.6, -999.0
09-10-2023, 00:08:30,    236,    0.0,   12.9,   0.00,   0.00, 1018.8,    0.5, -999.0
09-10-2023, 00:08:39,    236,    0.0,   12.9,   0.00,   0.00, 1018.8,    0.3, -999.0
09-10-2023, 00:08:49,    236,    0.0,   12.9,   0.00,   0.00, 1018.8,    0.4, -999.0
09-10-2023, 00:08:59,    236,    0.0,   12.9,   0.00,   0.00, 1018.8,    0.3, -999.0
09-10-2023, 00:09:09,    236,    0.0,   12.9,   0.00,   0.00, 1018.8,    0.5, -999.0
09-10-2023, 00:09:19,    237,    0.0,   12.9,   0.00,   0.00, 1018.8,    0.7, -999.0
09-10-2023, 00:09:29,    236,    0.0,   12.9,   0.00,   0.00, 1018.9,    0.8, -999.0
09-10-2023, 00:09:39,    237,    0.0,   12.8,   0.00,   0.00, 1018.9,    0.5, -999.0
09-10-2023, 00:09:49,    237,    0.0,   12.8,   0.00,   0.00, 1018.9,    0.6, -999.0
09-10-2023, 00:09:59,    237,    0.0,   12.8,   0.00,   0.00, 1018.9,    0.7, -999.0
09-10-2023, 00:10:09,    237,    0.0,   12.8,   0.00,   0.00, 1018.9,    0.5, -999.0
09-10-2023, 00:10:19,    237,    0.0,   12.8,   0.00,   0.00, 1018.9,    0.3, -999.0
09-10-2023, 00:10:29,    237,    0.0,   12.8,   0.00,   0.00, 1018.9,    1.0, -999.0
09-10-2023, 00:10:39,    237,    0.0,   12.8,   0.00,   0.00, 1018.9,    0.7, -999.0
09-10-2023, 00:10:49,    237,    0.0,   12.8,   0.00,   0.00, 1018.9,    0.5, -999.0
09-10-2023, 00:10:59,    237,    0.0,   12.8,   0.00,   0.00, 1018.9,    0.6, -999.0
09-10-2023, 00:11:09,    237,    0.0,   12.8,   0.00,   0.00, 1018.9,    0.3, -999.0
09-10-2023, 00:11:19,    237,    0.0,   12.8,   0.00,   0.00, 1018.9,    0.6, -999.0
09-10-2023, 00:11:29,    237,    0.0,   12.8,   0.00,   0.00, 1018.9,    0.3, -999.0
09-10-2023, 00:11:39,    237,    0.0,   12.7,   0.00,   0.00, 1018.9,    0.5, -999.0
09-10-2023, 00:11:49,    237,    0.0,   12.8,   0.00,   0.00, 1018.9,    0.5, -999.0
09-10-2023, 00:11:59,    237,    0.0,   12.8,   0.00,   0.00, 1018.9,    0.6, -999.0
09-10-2023, 00:12:09,    237,    0.0,   12.8,   0.00,   0.00, 1018.9,    0.6, -999.0
09-10-2023, 00:12:19,    237,    0.0,   12.8,   0.00,   0.00, 1018.9,    0.5, -999.0
09-10-2023, 00:12:29,    237,    0.0,   12.8,   0.00,   0.00, 1018.9,    0.5, -999.0
09-10-2023, 00:12:39,    237,    0.0,   12.8,   0.00,   0.00, 1018.9,    0.6, -999.0
09-10-2023, 00:12:48,    237,    0.0,   12.8,   0.00,   0.00, 1019.0,    0.5, -999.0
09-10-2023, 00:12:59,    237,    0.0,   12.8,   0.00,   0.00, 1019.0,    0.5, -999.0
09-10-2023, 00:13:09,    237,    0.0,   12.8,   0.00,   0.00, 1018.9,    0.6, -999.0
09-10-2023, 00:13:18,    237,    0.0,   12.7,   0.00,   0.00, 1018.9,    0.6, -999.0
09-10-2023, 00:13:28,    237,    0.0,   12.8,   0.00,   0.00, 1019.0,    0.5, -999.0
09-10-2023, 00:13:39,    237,    0.0,   12.8,   0.00,   0.00, 1019.0,    0.5, -999.0
09-10-2023, 00:13:49,    238,    0.0,   12.8,   0.00,   0.00, 1019.0,    0.4, -999.0
09-10-2023, 00:13:58,    237,    0.0,   12.8,   0.00,   0.00, 1018.9,    0.5, -999.0
09-10-2023, 00:14:08,    237,    0.0,   12.8,   0.00,   0.00, 1019.0,    0.5, -999.0
09-10-2023, 00:14:19,    237,    0.0,   12.8,   0.00,   0.00, 1018.9,    0.4, -999.0
09-10-2023, 00:14:28,    237,    0.0,   12.8,   0.00,   0.00, 1019.0,    0.4, -999.0
09-10-2023, 00:14:38,    238,    0.0,   12.8,   0.00,   0.00, 1019.0,    0.4, -999.0
09-10-2023, 00:14:48,    237,    0.0,   12.8,   0.00,   0.00, 1018.9,    0.4, -999.0
09-10-2023, 00:14:58,    238,    0.0,   12.8,   0.00,   0.00, 1019.0,    0.4, -999.0
09-10-2023, 00:15:08,    238,    0.0,   12.8,   0.00,   0.00, 1018.9,    0.5, -999.0
09-10-2023, 00:15:18,    237,    0.0,   12.7,   0.00,   0.00, 1018.9,    0.4, -999.0
09-10-2023, 00:15:28,    237,    0.0,   12.7,   0.00,   0.00, 1018.9,    0.4, -999.0
09-10-2023, 00:15:38,    237,    0.0,   12.8,   0.00,   0.00, 1018.9,    0.6, -999.0
09-10-2023, 00:15:48,    237,    0.0,   12.8,   0.00,   0.00, 1018.9,    0.6, -999.0
09-10-2023, 00:15:58,    238,    0.0,   12.8,   0.00,   0.00, 1018.9,    0.6, -999.0
09-10-2023, 00:16:08,    238,    0.0,   12.9,   0.00,   0.00, 1018.9,    0.4, -999.0
09-10-2023, 00:16:18,    238,    0.0,   12.8,   0.00,   0.00, 1018.9,    0.5, -999.0
09-10-2023, 00:16:28,    237,    0.0,   12.8,   0.00,   0.00, 1018.9,    0.6, -999.0
09-10-2023, 00:16:38,    238,    0.0,   12.8,   0.00,   0.00, 1018.9,    0.8, -999.0
09-10-2023, 00:16:48,    237,    0.0,   12.8,   0.00,   0.00, 1018.9,    0.3, -999.0
09-10-2023, 00:16:58,    238,    0.0,   12.9,   0.00,   0.00, 1018.9,    0.5, -999.0
09-10-2023, 00:17:08,    237,    0.0,   12.9,   0.00,   0.00, 1018.9,    0.3, -999.0
09-10-2023, 00:17:18,    238,    0.0,   12.8,   0.00,   0.00, 1018.9,    0.6, -999.0
09-10-2023, 00:17:28,    237,    0.0,   12.8,   0.00,   0.00, 1018.9,    0.7, -999.0
09-10-2023, 00:17:38,    238,    0.0,   12.9,   0.00,   0.00, 1018.8,    0.4, -999.0
09-10-2023, 00:17:48,    237,    0.0,   12.8,   0.00,   0.00, 1018.9,    0.6, -999.0
09-10-2023, 00:17:58,    238,    0.0,   12.8,   0.00,   0.00, 1018.9,    0.6, -999.0
09-10-2023, 00:18:07,    238,    0.0,   12.8,   0.00,   0.00, 1018.9,    0.4, -999.0
09-10-2023, 00:18:18,    237,    0.0,   12.8,   0.00,   0.00, 1018.9,    0.4, -999.0
09-10-2023, 00:18:28,    238,    0.0,   12.8,   0.00,   0.00, 1018.8,    0.5, -999.0
09-10-2023, 00:18:38,    238,    0.0,   12.8,   0.00,   0.00, 1018.9,    0.4, -999.0
09-10-2023, 00:18:47,    237,    0.0,   12.9,   0.00,   0.00, 1018.9,    0.5, -999.0
09-10-2023, 00:18:58,    238,    0.0,   12.8,   0.00,   0.00, 1018.8,    0.4, -999.0
09-10-2023, 00:19:08,    238,    0.0,   12.9,   0.00,   0.00, 1018.9,    0.4, -999.0
09-10-2023, 00:19:17,    238,    0.0,   12.8,   0.00,   0.00, 1018.9,    0.5, -999.0
09-10-2023, 00:19:27,    238,    0.0,   12.8,   0.00,   0.00, 1018.8,    0.3, -999.0
09-10-2023, 00:19:38,    237,    0.0,   12.9,   0.00,   0.00, 1018.8,    0.4, -999.0
09-10-2023, 00:19:47,    237,    0.0,   12.9,   0.00,   0.00, 1018.8,    0.7, -999.0
09-10-2023, 00:19:57,    237,    0.0,   12.9,   0.00,   0.00, 1018.8,    0.6, -999.0
09-10-2023, 00:20:07,    237,    0.0,   12.9,   0.00,   0.00, 1018.9,    0.4, -999.0
09-10-2023, 00:20:17,    237,    0.0,   12.8,   0.00,   0.00, 1018.9,    0.4, -999.0
09-10-2023, 00:20:27,    240,    0.0,   12.8,   0.00,   0.00, 1018.9,    0.4, -999.0
09-10-2023, 00:20:37,    247,    0.0,   12.9,   0.00,   0.00, 1018.9,    0.4, -999.0
09-10-2023, 00:20:48,    248,    0.0,   12.9,   0.00,   0.00, 1018.8,    0.5, -999.0
09-10-2023, 00:20:57,    248,    0.0,   12.9,   0.00,   0.00, 1018.8,    0.5, -999.0
09-10-2023, 00:21:07,    248,    0.0,   12.9,   0.00,   0.00, 1018.8,    0.5, -999.0
09-10-2023, 00:21:17,    248,    0.0,   12.9,   0.00,   0.00, 1018.8,    0.5, -999.0
09-10-2023, 00:21:29,    248,    0.0,   12.9,   0.00,   0.00, 1018.8,    0.6, -999.0
09-10-2023, 00:21:37,    248,    0.0,   12.9,   0.00,   0.00, 1018.8,    0.3, -999.0
09-10-2023, 00:21:47,    248,    0.0,   12.9,   0.00,   0.00, 1018.8,    0.4, -999.0
09-10-2023, 00:21:57,    248,    0.0,   12.8,   0.00,   0.00, 1018.8,    0.5, -999.0
09-10-2023, 00:22:07,    248,    0.0,   12.9,   0.00,   0.00, 1018.8,    0.3, -999.0
09-10-2023, 00:22:17,    248,    0.0,   12.9,   0.00,   0.00, 1018.9,    0.5, -999.0
09-10-2023, 00:22:27,    249,    0.0,   12.9,   0.00,   0.00, 1018.8,    0.4, -999.0
09-10-2023, 00:22:37,    248,    0.0,   12.9,   0.00,   0.00, 1018.8,    0.4, -999.0
09-10-2023, 00:22:47,    248,    0.0,   12.9,   0.00,   0.00, 1018.8,    0.6, -999.0
09-10-2023, 00:22:57,    248,    0.0,   12.9,   0.00,   0.00, 1018.8,    0.5, -999.0
09-10-2023, 00:23:07,    248,    0.0,   12.9,   0.00,   0.00, 1018.8,    0.5, -999.0
09-10-2023, 00:23:17,    254,    0.0,   12.9,   0.00,   0.00, 1018.8,    0.7, -999.0
09-10-2023, 00:23:27,    255,    0.0,   12.8,   0.00,   0.00, 1018.8,    0.4, -999.0
09-10-2023, 00:23:37,    255,    0.0,   12.9,   0.00,   0.00, 1018.8,    0.5, -999.0
09-10-2023, 00:23:47,    255,    0.0,   12.9,   0.00,   0.00, 1018.8,    0.5, -999.0
09-10-2023, 00:23:57,    255,    0.0,   12.9,   0.00,   0.00, 1018.8,    0.6, -999.0
09-10-2023, 00:24:07,    254,    0.0,   12.9,   0.00,   0.00, 1018.8,    0.4, -999.0
09-10-2023, 00:24:17,    255,    0.0,   12.9,   0.00,   0.00, 1018.8,    0.5, -999.0
09-10-2023, 00:24:27,    255,    0.0,   12.9,   0.00,   0.00, 1018.8,    0.5, -999.0
09-10-2023, 00:24:37,    254,    0.0,   12.9,   0.00,   0.00, 1018.8,    0.5, -999.0
09-10-2023, 00:24:47,    255,    0.0,   12.9,   0.00,   0.00, 1018.8,    0.6, -999.0
09-10-2023, 00:24:57,    254,    0.0,   12.8,   0.00,   0.00, 1018.8,    0.5, -999.0
09-10-2023, 00:25:06,    254,    0.0,   12.9,   0.00,   0.00, 1018.8,    0.4, -999.0
09-10-2023, 00:25:17,    254,    0.0,   12.9,   0.00,   0.00, 1018.8,    0.4, -999.0
09-10-2023, 00:25:27,    257,    0.0,   12.9,   0.00,   0.00, 1018.8,    0.4, -999.0
09-10-2023, 00:25:36,    257,    0.0,   12.9,   0.00,   0.00, 1018.8,    0.4, -999.0
09-10-2023, 00:25:46,    258,    0.0,   12.9,   0.00,   0.00, 1018.8,    0.5, -999.0
09-10-2023, 00:25:57,    257,    0.0,   12.9,   0.00,   0.00, 1018.8,    0.5, -999.0
09-10-2023, 00:26:06,    258,    0.0,   12.9,   0.00,   0.00, 1018.8,    0.3, -999.0
09-10-2023, 00:26:16,    257,    0.0,   12.9,   0.00,   0.00, 1018.8,    0.3, -999.0
09-10-2023, 00:26:26,    258,    0.0,   12.9,   0.00,   0.00, 1018.8,    0.4, -999.0
09-10-2023, 00:26:37,    257,    0.0,   12.9,   0.00,   0.00, 1018.8,    0.7, -999.0
09-10-2023, 00:26:46,    258,    0.0,   12.9,   0.00,   0.00, 1018.8,    0.3, -999.0
09-10-2023, 00:26:56,    257,    0.0,   12.9,   0.00,   0.00, 1018.8,    0.5, -999.0
09-10-2023, 00:27:06,    257,    0.0,   12.9,   0.00,   0.00, 1018.8,    0.5, -999.0
09-10-2023, 00:27:16,    257,    0.0,   12.9,   0.00,   0.00, 1018.8,    0.4, -999.0
09-10-2023, 00:27:26,    258,    0.0,   12.9,   0.00,   0.00, 1018.8,    1.1, -999.0
09-10-2023, 00:27:36,    258,    0.0,   12.9,   0.00,   0.00, 1018.8,    0.5, -999.0
09-10-2023, 00:27:46,    257,    0.0,   12.9,   0.00,   0.00, 1018.8,    0.5, -999.0
09-10-2023, 00:27:56,    257,    0.0,   12.9,   0.00,   0.00, 1018.8,    0.3, -999.0
09-10-2023, 00:28:06,    258,    0.0,   12.9,   0.00,   0.00, 1018.8,    0.6, -999.0
09-10-2023, 00:28:16,    258,    0.0,   12.9,   0.00,   0.00, 1018.8,    0.4, -999.0
09-10-2023, 00:28:26,    257,    0.0,   13.0,   0.00,   0.00, 1018.8,    0.4, -999.0
09-10-2023, 00:28:36,    258,    0.0,   12.7,   0.00,   0.00, 1018.8,    0.3, -999.0
09-10-2023, 00:28:46,    256,    0.0,   12.8,   0.00,   0.00, 1018.8,    0.4, -999.0
09-10-2023, 00:28:56,    256,    0.0,   12.9,   0.00,   0.00, 1018.8,    0.5, -999.0
09-10-2023, 00:29:06,    255,    0.0,   12.9,   0.00,   0.00, 1018.8,    0.3, -999.0
09-10-2023, 00:29:16,    255,    0.0,   12.9,   0.00,   0.00, 1018.8,    0.4, -999.0
09-10-2023, 00:29:26,    255,    0.0,   12.8,   0.00,   0.00, 1018.8,    0.6, -999.0
09-10-2023, 00:29:36,    255,    0.0,   12.9,   0.00,   0.00, 1018.8,    0.8, -999.0
09-10-2023, 00:29:46,    255,    0.0,   12.9,   0.00,   0.00, 1018.8,    0.4, -999.0
09-10-2023, 00:29:56,    256,    0.0,   12.9,   0.00,   0.00, 1018.8,    0.5, -999.0
09-10-2023, 00:30:06,    256,    0.0,   12.9,   0.00,   0.00, 1018.8,    0.6, -999.0
09-10-2023, 00:30:16,    255,    0.0,   12.9,   0.00,   0.00, 1018.8,    0.5, -999.0
09-10-2023, 00:30:26,    255,    0.0,   12.9,   0.00,   0.00, 1018.7,    0.5, -999.0
09-10-2023, 00:30:36,    255,    0.0,   12.9,   0.00,   0.00, 1018.8,    0.3, -999.0
09-10-2023, 00:30:46,    255,    0.0,   12.8,   0.00,   0.00, 1018.8,    0.5, -999.0
09-10-2023, 00:30:55,    255,    0.0,   12.9,   0.00,   0.00, 1018.8,    0.5, -999.0
09-10-2023, 00:31:06,    255,    0.0,   13.0,   0.00,   0.00, 1018.8,    0.4, -999.0
09-10-2023, 00:31:16,    255,    0.0,   12.9,   0.00,   0.00, 1018.8,    0.5, -999.0
09-10-2023, 00:31:25,    255,    0.0,   12.9,   0.00,   0.00, 1018.8,    0.5, -999.0
09-10-2023, 00:31:35,    256,    0.0,   12.9,   0.00,   0.00, 1018.8,    0.4, -999.0
09-10-2023, 00:31:46,    255,    0.0,   12.9,   0.00,   0.00, 1018.8,    0.9, -999.0
09-10-2023, 00:31:55,    255,    0.0,   12.9,   0.00,   0.00, 1018.8,    0.5, -999.0
09-10-2023, 00:32:05,    255,    0.0,   12.9,   0.00,   0.00, 1018.8,    0.4, -999.0
09-10-2023, 00:32:15,    255,    0.0,   12.9,   0.00,   0.00, 1018.8,    0.4, -999.0
09-10-2023, 00:32:26,    255,    0.0,   13.0,   0.00,   0.00, 1018.8,    0.4, -999.0
09-10-2023, 00:32:35,    255,    0.0,   12.9,   0.00,   0.00, 1018.7,    0.5, -999.0
09-10-2023, 00:32:45,    255,    0.0,   13.0,   0.00,   0.00, 1018.8,    0.4, -999.0
09-10-2023, 00:32:55,    256,    0.0,   12.9,   0.00,   0.00, 1018.8,    0.6, -999.0
09-10-2023, 00:33:05,    256,    0.0,   12.9,   0.00,   0.00, 1018.8,    0.4, -999.0
09-10-2023, 00:33:15,    256,    0.0,   13.0,   0.00,   0.00, 1018.8,    0.6, -999.0
09-10-2023, 00:33:25,    256,    0.0,   12.9,   0.00,   0.00, 1018.8,    0.5, -999.0
09-10-2023, 00:33:35,    257,    0.0,   13.0,   0.00,   0.00, 1018.8,    0.2, -999.0
09-10-2023, 00:33:45,    257,    0.0,   13.0,   0.00,   0.00, 1018.8,    0.7, -999.0
09-10-2023, 00:33:55,    257,    0.0,   12.9,   0.00,   0.00, 1018.8,    0.4, -999.0
09-10-2023, 00:34:05,    257,    0.0,   12.8,   0.00,   0.00, 1018.7,    0.7, -999.0
09-10-2023, 00:34:15,    257,    0.0,   12.9,   0.00,   0.00, 1018.8,    0.3, -999.0
09-10-2023, 00:34:25,    257,    0.0,   12.9,   0.00,   0.00, 1018.8,    0.5, -999.0
09-10-2023, 00:34:35,    257,    0.0,   13.0,   0.00,   0.00, 1018.8,    0.7, -999.0
09-10-2023, 00:34:45,    257,    0.0,   12.9,   0.00,   0.00, 1018.7,    0.5, -999.0
09-10-2023, 00:34:55,    256,    0.0,   13.0,   0.00,   0.00, 1018.7,    0.1, -999.0
09-10-2023, 00:35:05,    257,    0.0,   12.9,   0.00,   0.00, 1018.7,    1.1, -999.0
09-10-2023, 00:35:15,    256,    0.0,   12.9,   0.00,   0.00, 1018.7,    0.1, -999.0
09-10-2023, 00:35:25,    257,    0.0,   12.9,   0.00,   0.00, 1018.8,    0.9, -999.0
09-10-2023, 00:35:35,    257,    0.0,   13.0,   0.00,   0.00, 1018.8,    0.4, -999.0
09-10-2023, 00:35:45,    257,    0.0,   12.9,   0.00,   0.00, 1018.8,    0.6, -999.0
09-10-2023, 00:35:55,    257,    0.0,   13.0,   0.00,   0.00, 1018.8,    0.3, -999.0
09-10-2023, 00:36:05,    257,    0.0,   13.0,   0.00,   0.00, 1018.7,    0.5, -999.0
09-10-2023, 00:36:15,    256,    0.0,   12.9,   0.00,   0.00, 1018.8,    0.4, -999.0
09-10-2023, 00:36:25,    256,    0.0,   12.9,   0.00,   0.00, 1018.8,    0.6, -999.0
09-10-2023, 00:36:35,    257,    0.0,   13.0,   0.00,   0.00, 1018.8,    0.3, -999.0
09-10-2023, 00:36:44,    258,    0.0,   13.0,   0.00,   0.00, 1018.8,    0.5, -999.0
09-10-2023, 00:36:55,    258,    0.0,   12.9,   0.00,   0.00, 1018.8,    0.5, -999.0
09-10-2023, 00:37:05,    258,    0.0,   12.9,   0.00,   0.00, 1018.8,    0.8, -999.0
09-10-2023, 00:37:15,    260,    0.0,   12.8,   0.00,   0.00, 1018.7,    0.4, -999.0
09-10-2023, 00:37:24,    260,    0.0,   12.9,   0.00,   0.00, 1018.7,    0.5, -999.0
09-10-2023, 00:37:35,    261,    0.0,   12.8,   0.00,   0.00, 1018.7,    0.4, -999.0
09-10-2023, 00:37:45,    260,    0.0,   12.8,   0.00,   0.00, 1018.7,    0.5, -999.0
09-10-2023, 00:37:54,    260,    0.0,   12.9,   0.00,   0.00, 1018.7,    0.5, -999.0
09-10-2023, 00:38:04,    260,    0.0,   12.8,   0.00,   0.00, 1018.8,    0.3, -999.0
09-10-2023, 00:38:15,    261,    0.0,   12.8,   0.00,   0.00, 1018.8,    0.7, -999.0
09-10-2023, 00:38:24,    270,    0.3,   12.9,   0.00,   0.00, 1018.8,    0.3, -999.0
09-10-2023, 00:38:34,    275,    0.0,   12.9,   0.00,   0.00, 1018.7,    0.5, -999.0
09-10-2023, 00:38:44,    276,    0.0,   12.8,   0.00,   0.00, 1018.7,    0.4, -999.0
09-10-2023, 00:38:54,    275,    0.0,   12.9,   0.00,   0.00, 1018.7,    0.6, -999.0
09-10-2023, 00:39:04,    257,    0.0,   12.9,   0.00,   0.00, 1018.7,    0.4, -999.0
09-10-2023, 00:39:14,    263,    0.8,   12.9,   0.00,   0.00, 1018.8,    0.5, -999.0
09-10-2023, 00:39:24,    263,    0.2,   12.9,   0.00,   0.00, 1018.7,    0.6, -999.0
09-10-2023, 00:39:34,    264,    0.0,   12.8,   0.00,   0.00, 1018.7,    0.3, -999.0
09-10-2023, 00:39:44,    264,    0.0,   12.8,   0.00,   0.00, 1018.7,    0.5, -999.0
09-10-2023, 00:39:54,    264,    0.0,   12.7,   0.00,   0.00, 1018.7,    0.4, -999.0
09-10-2023, 00:40:04,    264,    0.0,   12.8,   0.00,   0.00, 1018.7,    0.3, -999.0
09-10-2023, 00:40:14,    264,    0.0,   12.8,   0.00,   0.00, 1018.6,    0.5, -999.0
09-10-2023, 00:40:24,    266,    0.0,   12.9,   0.00,   0.00, 1018.7,    0.4, -999.0
09-10-2023, 00:40:34,    266,    0.0,   12.8,   0.00,   0.00, 1018.7,    0.4, -999.0
09-10-2023, 00:40:44,    267,    0.0,   12.8,   0.00,   0.00, 1018.7,    0.7, -999.0
09-10-2023, 00:40:54,    267,    0.0,   12.8,   0.00,   0.00, 1018.6,    0.7, -999.0
09-10-2023, 00:41:04,    266,    0.0,   12.8,   0.00,   0.00, 1018.7,    0.3, -999.0
09-10-2023, 00:41:14,    266,    0.0,   12.8,   0.00,   0.00, 1018.7,    0.4, -999.0
09-10-2023, 00:41:24,    266,    0.0,   12.8,   0.00,   0.00, 1018.6,    0.5, -999.0
09-10-2023, 00:41:34,    266,    0.0,   12.8,   0.00,   0.00, 1018.6,    0.5, -999.0
09-10-2023, 00:41:44,    266,    0.0,   12.8,   0.00,   0.00, 1018.6,    0.3, -999.0
09-10-2023, 00:41:54,    266,    0.0,   12.8,   0.00,   0.00, 1018.6,    0.7, -999.0
09-10-2023, 00:42:04,    266,    0.0,   12.8,   0.00,   0.00, 1018.6,    0.4, -999.0
09-10-2023, 00:42:14,    267,    0.0,   12.9,   0.00,   0.00, 1018.6,    0.6, -999.0
09-10-2023, 00:42:24,    267,    0.0,   12.8,   0.00,   0.00, 1018.6,    0.3, -999.0
09-10-2023, 00:42:33,    267,    0.0,   12.8,   0.00,   0.00, 1018.6,    0.4, -999.0
09-10-2023, 00:42:44,    267,    0.0,   12.8,   0.00,   0.00, 1018.7,    0.2, -999.0
09-10-2023, 00:42:54,    268,    0.0,   12.8,   0.00,   0.00, 1018.6,    0.2, -999.0
09-10-2023, 00:43:04,    267,    0.0,   12.8,   0.00,   0.00, 1018.7,    0.3, -999.0
09-10-2023, 00:43:13,    267,    0.0,   12.7,   0.00,   0.00, 1018.6,    0.4, -999.0
09-10-2023, 00:43:24,    267,    0.0,   12.8,   0.00,   0.00, 1018.6,    0.5, -999.0
09-10-2023, 00:43:34,    267,    0.0,   12.8,   0.00,   0.00, 1018.6,    0.4, -999.0
09-10-2023, 00:43:43,    267,    0.0,   12.8,   0.00,   0.00, 1018.6,    0.5, -999.0
09-10-2023, 00:43:54,    267,    0.0,   12.8,   0.00,   0.00, 1018.6,    0.6, -999.0
09-10-2023, 00:44:04,    266,    0.0,   12.8,   0.00,   0.00, 1018.6,    0.4, -999.0
09-10-2023, 00:44:13,    267,    0.0,   12.8,   0.00,   0.00, 1018.6,    0.5, -999.0
09-10-2023, 00:44:23,    267,    0.0,   12.8,   0.00,   0.00, 1018.7,    0.1, -999.0
09-10-2023, 00:44:34,    267,    0.0,   12.8,   0.00,   0.00, 1018.6,    0.9, -999.0
09-10-2023, 00:44:43,    267,    0.0,   12.8,   0.00,   0.00, 1018.6,    0.8, -999.0
09-10-2023, 00:44:53,    267,    0.0,   12.8,   0.00,   0.00, 1018.6,    0.2, -999.0
09-10-2023, 00:45:03,    267,    0.0,   12.8,   0.00,   0.00, 1018.7,    0.3, -999.0
09-10-2023, 00:45:13,    267,    0.0,   12.8,   0.00,   0.00, 1018.6,    0.7, -999.0
09-10-2023, 00:45:23,    267,    0.0,   12.8,   0.00,   0.00, 1018.7,    0.3, -999.0
09-10-2023, 00:45:33,    268,    0.0,   12.8,   0.00,   0.00, 1018.6,    0.2, -999.0
09-10-2023, 00:45:43,    268,    0.0,   12.6,   0.00,   0.00, 1018.6,    0.8, -999.0
09-10-2023, 00:45:53,    268,    0.0,   12.8,   0.00,   0.00, 1018.6,    0.6, -999.0
09-10-2023, 00:46:03,    269,    0.0,   12.7,   0.00,   0.00, 1018.7,    0.2, -999.0
09-10-2023, 00:46:13,    268,    0.0,   12.7,   0.00,   0.00, 1018.6,    0.2, -999.0
09-10-2023, 00:46:23,    268,    0.0,   12.8,   0.00,   0.00, 1018.6,    0.5, -999.0
09-10-2023, 00:46:33,    268,    0.0,   12.8,   0.00,   0.00, 1018.6,    0.6, -999.0
09-10-2023, 00:46:43,    268,    0.0,   12.8,   0.00,   0.00, 1018.6,    0.6, -999.0